When you browse on this site, cookies collect data to enhance your experience and personalize the content and advertising you see.
Visit our Privacy Policy to learn more. By continuing to use the site, you agree to this use of cookies and data.
  • en Suisse
  • Liste des pays
  • À 7 jours
  • Température de l'eau
  • Carte météo
  • Widgets météo
  • user-avatar
    Se connecter

    Météo par heure à Lincoln

    Ce jour, 11 Décembre, Mercredi

    Heure Température Précipitation Vent Pression Humidité
    00:00 +3°C° 0 mm 6 m/s 747 mmHg 74%
    01:00 +3°C° 0 mm 6 m/s 747 mmHg 75%
    02:00 +3°C° 0 mm 5 m/s 748 mmHg 76%
    03:00 +2°C° 0 mm 5 m/s 748 mmHg 77%
    04:00 +2°C° 0 mm 5 m/s 748 mmHg 78%
    05:00 +2°C° 0 mm 5 m/s 748 mmHg 80%
    06:00 +2°C° 0 mm 5 m/s 747 mmHg 82%
    07:00 +2°C° 0 mm 5 m/s 747 mmHg 82%
    08:00 +2°C° 0 mm 5 m/s 747 mmHg 82%
    09:00 +2°C° 0 mm 5 m/s 746 mmHg 82%
    10:00 +3°C° 0 mm 5 m/s 746 mmHg 81%
    11:00 +3°C° 0 mm 5 m/s 745 mmHg 79%
    12:00 +5°C° 0 mm 5 m/s 745 mmHg 78%
    13:00 +5°C° 0 mm 4 m/s 744 mmHg 79%
    14:00 +5°C° 0 mm 3 m/s 744 mmHg 81%
    15:00 +4°C° 0 mm 3 m/s 743 mmHg 83%
    16:00 +4°C° 0.9 mm 3 m/s 743 mmHg 85%
    17:00 +3°C° 0.9 mm 3 m/s 743 mmHg 87%
    18:00 +2°C° 0.9 mm 3 m/s 743 mmHg 89%
    19:00 +2°C° 0.1 mm 3 m/s 744 mmHg 88%
    20:00 +2°C° 0.1 mm 3 m/s 744 mmHg 87%
    21:00 +1°C° 0.1 mm 4 m/s 744 mmHg 86%
    22:00 0°C° 0 mm 4 m/s 745 mmHg 85%
    23:00 0°C° 0 mm 4 m/s 745 mmHg 84%

    Demain, 12 Décembre, Jeudi

    Heure Température Précipitation Vent Pression Humidité
    00:00 0°C° 0 mm 4 m/s 745 mmHg 84%
    01:00 0°C° 0 mm 4 m/s 745 mmHg 84%
    02:00 0°C° 0 mm 4 m/s 745 mmHg 85%
    03:00 0°C° 0 mm 4 m/s 744 mmHg 86%
    04:00 -1°C° 0 mm 4 m/s 744 mmHg 87%
    05:00 -1°C° 0 mm 4 m/s 744 mmHg 87%
    06:00 -1°C° 0 mm 4 m/s 743 mmHg 88%
    07:00 -1°C° 0 mm 4 m/s 743 mmHg 87%
    08:00 -1°C° 0 mm 4 m/s 742 mmHg 87%
    09:00 -1°C° 0 mm 4 m/s 741 mmHg 86%
    10:00 0°C° 0 mm 5 m/s 740 mmHg 83%
    11:00 +1°C° 0 mm 6 m/s 739 mmHg 81%
    12:00 +2°C° 0 mm 7 m/s 738 mmHg 78%
    13:00 +2°C° 0.2 mm 7 m/s 736 mmHg 81%
    14:00 +1°C° 0.2 mm 8 m/s 734 mmHg 84%
    15:00 +2°C° 0.2 mm 8 m/s 732 mmHg 87%
    16:00 +2°C° 1.5 mm 9 m/s 730 mmHg 89%
    17:00 +2°C° 1.5 mm 9 m/s 728 mmHg 90%
    18:00 +2°C° 1.5 mm 9 m/s 727 mmHg 92%
    19:00 +2°C° 0.7 mm 8 m/s 726 mmHg 92%
    20:00 +3°C° 0.7 mm 7 m/s 725 mmHg 93%
    21:00 +3°C° 0.7 mm 6 m/s 724 mmHg 94%
    22:00 +3°C° 0.6 mm 5 m/s 723 mmHg 94%
    23:00 +4°C° 0.6 mm 4 m/s 722 mmHg 95%

    Après-demain, 13 Décembre, Vendredi

    Heure Température Précipitation Vent Pression Humidité
    00:00 +4°C° 0.6 mm 3 m/s 722 mmHg 95%
    01:00 +4°C° 1.1 mm 4 m/s 722 mmHg 94%
    02:00 +3°C° 1.1 mm 5 m/s 722 mmHg 92%
    03:00 +3°C° 1.1 mm 6 m/s 721 mmHg 91%
    04:00 +3°C° 0.9 mm 6 m/s 722 mmHg 91%
    05:00 +3°C° 0.9 mm 6 m/s 723 mmHg 92%
    06:00 +3°C° 0.9 mm 6 m/s 723 mmHg 92%
    07:00 +3°C° 0.8 mm 6 m/s 725 mmHg 92%
    08:00 +3°C° 0.8 mm 5 m/s 726 mmHg 92%
    09:00 +4°C° 0.8 mm 4 m/s 727 mmHg 91%
    10:00 +5°C° 0.2 mm 4 m/s 728 mmHg 90%
    11:00 +5°C° 0.2 mm 3 m/s 729 mmHg 88%
    12:00 +5°C° 0.2 mm 3 m/s 730 mmHg 87%
    13:00 +5°C° 0 mm 3 m/s 730 mmHg 86%
    14:00 +5°C° 0 mm 4 m/s 731 mmHg 86%
    15:00 +5°C° 0 mm 4 m/s 731 mmHg 86%
    16:00 +5°C° 0.1 mm 5 m/s 731 mmHg 84%
    17:00 +5°C° 0.1 mm 5 m/s 731 mmHg 82%
    18:00 +4°C° 0.1 mm 6 m/s 731 mmHg 80%
    19:00 +3°C° 0 mm 6 m/s 730 mmHg 81%
    20:00 +3°C° 0 mm 5 m/s 730 mmHg 82%
    21:00 +3°C° 0 mm 4 m/s 729 mmHg 83%
    22:00 +3°C° 0.3 mm 4 m/s 728 mmHg 86%
    23:00 +3°C° 0.3 mm 4 m/s 726 mmHg 89%

    14 Décembre, Samedi

    Heure Température Précipitation Vent Pression Humidité
    00:00 +3°C° 0.3 mm 4 m/s 725 mmHg 92%
    01:00 +2°C° 0.8 mm 6 m/s 725 mmHg 91%
    02:00 +1°C° 0.8 mm 8 m/s 726 mmHg 90%
    03:00 +1°C° 0.8 mm 10 m/s 726 mmHg 88%
    04:00 +1°C° 0.3 mm 10 m/s 727 mmHg 82%
    05:00 +1°C° 0.3 mm 9 m/s 728 mmHg 77%
    06:00 +1°C° 0.3 mm 8 m/s 729 mmHg 71%
    07:00 0°C° 0 mm 8 m/s 729 mmHg 70%
    08:00 0°C° 0 mm 8 m/s 730 mmHg 70%
    09:00 0°C° 0 mm 7 m/s 730 mmHg 69%
    10:00 0°C° 0 mm 8 m/s 731 mmHg 67%
    11:00 +1°C° 0 mm 9 m/s 731 mmHg 66%
    12:00 +1°C° 0 mm 9 m/s 731 mmHg 64%
    13:00 +1°C° 0 mm 9 m/s 732 mmHg 63%
    14:00 +1°C° 0 mm 9 m/s 732 mmHg 62%
    15:00 0°C° 0 mm 9 m/s 732 mmHg 61%
    16:00 0°C° 0 mm 9 m/s 733 mmHg 61%
    17:00 -1°C° 0 mm 9 m/s 733 mmHg 61%
    18:00 -1°C° 0 mm 8 m/s 734 mmHg 61%
    19:00 -1°C° 0 mm 8 m/s 734 mmHg 63%
    20:00 -1°C° 0 mm 8 m/s 735 mmHg 65%
    21:00 -1°C° 0 mm 7 m/s 735 mmHg 66%
    22:00 -1°C° 0 mm 7 m/s 735 mmHg 69%
    23:00 -1°C° 0 mm 6 m/s 734 mmHg 73%

    15 Décembre, Dimanche

    Heure Température Précipitation Vent Pression Humidité
    00:00 -1°C° 0 mm 6 m/s 734 mmHg 76%
    01:00 0°C° 0.3 mm 5 m/s 733 mmHg 82%
    02:00 -1°C° 0.3 mm 4 m/s 732 mmHg 88%
    03:00 -1°C° 0.3 mm 4 m/s 731 mmHg 94%
    04:00 -1°C° 0.4 mm 4 m/s 731 mmHg 94%
    05:00 -1°C° 0.4 mm 5 m/s 731 mmHg 93%
    06:00 -1°C° 0.4 mm 5 m/s 732 mmHg 92%
    07:00 -2°C° 0 mm 6 m/s 733 mmHg 91%
    08:00 -2°C° 0 mm 7 m/s 734 mmHg 90%
    09:00 -2°C° 0 mm 7 m/s 736 mmHg 88%
    10:00 -1°C° 0.3 mm 8 m/s 736 mmHg 88%
    11:00 -1°C° 0.3 mm 8 m/s 736 mmHg 88%
    12:00 -1°C° 0.3 mm 8 m/s 736 mmHg 88%
    13:00 0°C° 0.1 mm 8 m/s 737 mmHg 85%
    14:00 +2°C° 0.1 mm 7 m/s 737 mmHg 82%
    15:00 +2°C° 0.1 mm 7 m/s 738 mmHg 79%
    16:00 +2°C° 0 mm 7 m/s 739 mmHg 78%
    17:00 +2°C° 0 mm 7 m/s 739 mmHg 77%
    18:00 +2°C° 0 mm 7 m/s 740 mmHg 76%
    19:00 +2°C° 0 mm 7 m/s 741 mmHg 77%
    20:00 +1°C° 0 mm 8 m/s 741 mmHg 77%
    21:00 +1°C° 0 mm 8 m/s 742 mmHg 78%
    22:00 +2°C° 0 mm 7 m/s 743 mmHg 78%
    23:00 0°C° 0 mm 7 m/s 743 mmHg 79%

    16 Décembre, Lundi

    Heure Température Précipitation Vent Pression Humidité
    00:00 0°C° 0 mm 7 m/s 744 mmHg 79%
    01:00 +1°C° 0 mm 6 m/s 744 mmHg 81%
    02:00 +1°C° 0 mm 6 m/s 744 mmHg 82%
    03:00 +1°C° 0 mm 6 m/s 745 mmHg 84%
    04:00 +1°C° 0 mm 5 m/s 745 mmHg 85%
    05:00 0°C° 0 mm 5 m/s 745 mmHg 87%
    06:00 0°C° 0 mm 4 m/s 746 mmHg 88%
    07:00 0°C° 0 mm 4 m/s 746 mmHg 87%
    08:00 0°C° 0 mm 4 m/s 746 mmHg 87%
    09:00 0°C° 0 mm 4 m/s 746 mmHg 87%
    10:00 +1°C° 1.9 mm 4 m/s 745 mmHg 89%
    11:00 +3°C° 1.9 mm 4 m/s 745 mmHg 91%
    12:00 +2°C° 1.9 mm 5 m/s 745 mmHg 94%
    13:00 +3°C° 1.4 mm 5 m/s 744 mmHg 93%
    14:00 +3°C° 1.4 mm 5 m/s 744 mmHg 92%
    15:00 +5°C° 1.4 mm 5 m/s 743 mmHg 91%
    16:00 +3°C° 0 mm 5 m/s 744 mmHg 90%
    17:00 +2°C° 0 mm 5 m/s 744 mmHg 89%
    18:00 +1°C° 0 mm 5 m/s 744 mmHg 88%
    19:00 +1°C° 0 mm 4 m/s 745 mmHg 89%
    20:00 +1°C° 0 mm 3 m/s 745 mmHg 89%
    21:00 +2°C° 0 mm 2 m/s 746 mmHg 90%
    22:00 +1°C° 0 mm 2 m/s 746 mmHg 91%
    23:00 +1°C° 0 mm 2 m/s 746 mmHg 91%
    Voir plus